TimeAKDT,TemperatureF,Dew PointF,Humidity,Sea Level PressureIn,VisibilityMPH,Wind Direction,Wind SpeedMPH,Gust SpeedMPH,PrecipitationIn,Events,Conditions,WindDirDegrees,DateUTC
12:56 AM,50.0,39.0,66,29.68,10.0,ENE,9.2,-,N/A,,Clear,70,2013-09-10 08:56:00
1:55 AM,48.2,39.2,71,29.69,10.0,Variable,2.3,-,N/A,,Scattered Clouds,0,2013-09-10 09:55:00
1:56 AM,48.9,39.0,69,29.69,10.0,Calm,Calm,-,N/A,,Clear,0,2013-09-10 09:56:00
2:55 AM,48.2,39.2,71,29.69,10.0,NE,3.5,-,N/A,,Mostly Cloudy,50,2013-09-10 10:55:00
2:56 AM,48.9,39.0,69,29.69,10.0,ENE,5.8,-,N/A,,Scattered Clouds,70,2013-09-10 10:56:00
3:55 AM,46.4,39.2,76,29.68,10.0,SSE,3.5,-,N/A,,Mostly Cloudy,160,2013-09-10 11:55:00
3:56 AM,46.0,39.0,76,29.68,10.0,ESE,3.5,-,N/A,,Scattered Clouds,110,2013-09-10 11:56:00
4:55 AM,48.2,39.2,71,29.65,10.0,East,8.1,-,N/A,,Mostly Cloudy,80,2013-09-10 12:55:00
4:56 AM,50.0,39.0,66,29.65,10.0,ENE,10.4,-,N/A,,Partly Cloudy,70,2013-09-10 12:56:00
5:55 AM,46.4,39.2,76,29.68,10.0,Variable,1.2,-,N/A,,Mostly Cloudy,0,2013-09-10 13:55:00
5:56 AM,46.9,39.0,74,29.68,10.0,Calm,Calm,-,N/A,,Mostly Cloudy,0,2013-09-10 13:56:00
6:55 AM,46.4,41.0,81,29.68,10.0,ENE,3.5,-,N/A,,Overcast,70,2013-09-10 14:55:00
7:55 AM,46.4,39.2,76,29.68,10.0,East,6.9,-,N/A,,Mostly Cloudy,80,2013-09-10 15:55:00
8:55 AM,51.8,41.0,67,29.70,10.0,Calm,Calm,-,N/A,,Mostly Cloudy,0,2013-09-10 16:55:00
9:55 AM,53.6,41.0,62,29.71,10.0,Calm,Calm,-,N/A,,Scattered Clouds,0,2013-09-10 17:55:00
10:55 AM,60.8,41.0,48,29.70,10.0,East,3.5,-,N/A,,Partly Cloudy,80,2013-09-10 18:55:00
11:55 AM,62.6,41.0,45,29.70,10.0,East,5.8,-,N/A,,Scattered Clouds,80,2013-09-10 19:55:00
12:55 PM,64.4,39.2,40,29.69,10.0,Calm,Calm,-,N/A,,Scattered Clouds,0,2013-09-10 20:55:00
1:56 PM,66.2,39.2,37,29.68,10.0,Variable,3.5,-,N/A,,Mostly Cloudy,0,2013-09-10 21:56:00
2:55 PM,68.0,37.4,33,29.67,13.0,NE,4.6,-,N/A,,Mostly Cloudy,50,2013-09-10 22:55:00
3:55 PM,69.8,41.0,35,29.66,13.0,Calm,Calm,-,N/A,,Mostly Cloudy,0,2013-09-10 23:55:00
4:55 PM,69.8,41.0,35,29.66,13.0,ESE,4.6,-,N/A,,Mostly Cloudy,120,2013-09-11 00:55:00
5:55 PM,66.2,41.0,40,29.66,13.0,SE,9.2,-,N/A,,Mostly Cloudy,130,2013-09-11 01:55:00
6:55 PM,64.4,42.8,45,29.66,13.0,SE,6.9,-,N/A,,Overcast,140,2013-09-11 02:55:00
7:55 PM,60.8,44.6,55,29.67,13.0,SE,6.9,-,N/A,,Overcast,140,2013-09-11 03:55:00
8:55 PM,59.0,46.4,63,29.69,13.0,East,3.5,-,N/A,,Mostly Cloudy,90,2013-09-11 04:55:00
10:56 PM,55.0,45.0,69,29.72,10.0,NE,3.5,-,N/A,,Mostly Cloudy,50,2013-09-11 06:56:00
11:56 PM,51.1,44.1,77,29.71,10.0,Calm,Calm,-,N/A,,Scattered Clouds,0,2013-09-11 07:56:00